Flag for Ireland Weather past 2 weeks in Letterkenny, Ireland

Now
52 °F

Cool.


Feels Like: 47 °F
Forecast: 52 / 55 °F
Wind: 16 mph from Southwest

Location: Castlederg

Current Time: Oct 25, 2014 at 7:09:48 PM

Latest Report: Oct 25, 2014 at 6:00 PM


Visibility: 13 mi

Pressure: 29.73 "Hg

Humidity: 69%

Dew point: 42 °F

Location of LetterkennyLocation

Historic Weather in Letterkenny — Graph

°F

Letterkenny temperature yesterday

Maximum temperature yesterday: 53 °F (at 3:00 PM)
Minimum temperature yesterday: 44 °F (at 5:00 AM)
Average temperature yesterday: 48 °F

Past Weeks' High & Low Weather Summary

 TemperatureHumidityPressure
High62 °F (Oct 18, 2:00 PM)100% (Oct 10, 9:00 PM)30.19 "Hg (Oct 10, 9:00 PM)
Low35 °F (Oct 11, 8:00 AM)55% (Oct 21, 3:00 PM)29.18 "Hg (Oct 21, 2:00 AM)
Average51 °F85%29.69 "Hg
* Reported Oct 10 5:00 PM — Oct 25 5:00 PM, Letterkenny, Weather by CustomWeather, © 2014

Note: Actual official high and low records may vary slightly from our data, if they occured in-between our weather recording intervals... More about our weather records

Advertising

Letterkenny weather history for previous 24 hours

 ConditionsComfort  
Time TempWeatherWind HumidityBarometerVisibility
5:00 PM
Oct 25
53 °FCool.20 mph72%29.73 "Hg12 mi
4:00 PM53 °FCool.16 mph72%29.73 "Hg14 mi
3:00 PM54 °FCool.20 mph71%29.72 "Hg12 mi
2:00 PM56 °FCool.21 mph70%29.72 "Hg13 mi
1:00 PM55 °FCool.22 mph68%29.72 "Hg15 mi
12:00 PM54 °FCool.22 mph74%29.72 "Hg11 mi
11:00 AM53 °FCool.20 mph78%29.72 "Hg9 mi
10:00 AM50 °FCool.18 mph84%29.72 "Hg16 mi
9:00 AM50 °FCool.20 mph84%29.70 "Hg19 mi
8:00 AM49 °FCool.18 mph86%29.69 "Hg31 mi
7:00 AM50 °FRain showers. Overcast.20 mph89%29.68 "Hg31 mi
6:00 AM50 °FCool.20 mph87%29.68 "Hg5 mi
5:00 AM50 °FCool.15 mph85%29.69 "Hg22 mi
4:00 AM49 °FCool.14 mph80%29.71 "Hg25 mi
3:00 AM49 °FCool.16 mph79%29.72 "Hg22 mi
2:00 AM48 °FCool.15 mph82%29.74 "Hg25 mi
1:00 AM48 °FCool.15 mph84%29.75 "Hg22 mi
12:00 AM48 °FLight freezing rain. Overcast.12 mph86%29.77 "Hg7 mi
11:00 PM
Oct 24
48 °FCool.14 mph83%29.77 "Hg16 mi
10:00 PM48 °FCool.13 mph84%29.77 "Hg13 mi
9:00 PM48 °FLots of rain. Overcast.12 mph87%29.77 "Hg4 mi
8:00 PM47 °FCool.5 mph87%29.76 "Hg17 mi
7:00 PM49 °FLight mixture of precip. Overcast.10 mph85%29.76 "Hg3 mi
Weather by CustomWeather, © 2014

See weather overviewHow to use our weather pages